Weather History for KPSM - March, 2013

Change the Weather History Date:

Saturday, March 23, 2013

  Actual Average Record
Temperature  
Mean Temperature 33 °F -  
Max Temperature 40 °F 43 °F 72 °F (2012)
Min Temperature 26 °F 28 °F 12 °F (1988)
Degree Days  
Heating Degree Days 32    
Moisture  
Dew Point 18 °F    
Average Humidity 52    
Maximum Humidity 67    
Minimum Humidity 36    
Precipitation  
Precipitation 0.00 in - - ()
Snow  
Snow 0.00 in - - ()
Snow Depth 7.00 in    
Sea Level Pressure  
Sea Level Pressure 29.66 in    
Wind  
Wind Speed 13 mph (West)    
Max Wind Speed 28 mph    
Max Gust Speed 41 mph    
Visibility 10 miles    
Events      
Averages and records for this station are not official NWS values.
T = Trace of Precipitation, MM = Missing Value Source: NWS Daily Summary

Daily Weather History Graph

Daily Weather History Graph

Search for Another Location

Airport or City:

Trip Planner

Search our weather history database for the weather conditions in past years. The results will help you decide how hot, cold, wet, or windy it might be!

Date:

Astronomy

Mar. 23, 2013 Rise Set
Actual Time 6:40 AM EDT 6:59 PM EDT
Civil Twilight 6:12 AM EDT 7:27 PM EDT
Nautical Twilight 5:39 AM EDT 8:01 PM EDT
Astronomical Twilight 5:04 AM EDT 8:35 PM EDT
Moon 3:18 PM EDT (3/23) 4:20 AM EDT (3/23)
Length of Visible Light 13h 15m
Length of Day
12h 18m
Waxing Gibbous, 85% of the Moon is Illuminated
Mar 23
Waxing Gibbous
Mar 27
Full
Apr 3
Last Quarter
Apr 10
New
Apr 18
First Quarter

Hourly Weather History & Observations

Time (EDT) Temp. Windchill Dew Point Humidity Pressure Visibility Wind Dir Wind Speed Gust Speed Precip Events Conditions
12:55 AM 31.1 °F 22.4 °F 18.9 °F 61% 29.70 in 10.0 mi WNW 10.4 mph 19.6 mph N/A   Mostly Cloudy
1:55 AM 29.3 °F 22.3 °F 15.6 °F 57% 29.70 in 10.0 mi West 6.9 mph - N/A   Mostly Cloudy
2:55 AM 29.1 °F 21.3 °F 18.0 °F 63% 29.69 in 10.0 mi West 8.1 mph - N/A   Scattered Clouds
3:55 AM 28.6 °F 18.7 °F 16.5 °F 61% 29.68 in 10.0 mi West 11.5 mph - N/A   Partly Cloudy
4:55 AM 26.2 °F 17.8 °F 16.2 °F 66% 29.67 in 10.0 mi SW 8.1 mph - N/A   Partly Cloudy
5:55 AM 27.1 °F 18.2 °F 17.2 °F 66% 29.66 in 10.0 mi WSW 9.2 mph - N/A   Partly Cloudy
6:55 AM 27.1 °F 17.5 °F 17.6 °F 67% 29.65 in 10.0 mi WSW 10.4 mph - N/A   Partly Cloudy
7:55 AM 29.3 °F 19.6 °F 18.3 °F 64% 29.66 in 10.0 mi WSW 11.5 mph - N/A   Scattered Clouds
8:55 AM 32.2 °F 21.8 °F 19.4 °F 59% 29.65 in 10.0 mi WSW 15.0 mph 20.7 mph N/A   Mostly Cloudy
9:55 AM 34.0 °F 24.2 °F 19.0 °F 54% 29.64 in 10.0 mi West 15.0 mph 26.5 mph N/A   Mostly Cloudy
10:55 AM 34.7 °F 25.1 °F 17.2 °F 49% 29.62 in 10.0 mi WNW 15.0 mph 28.8 mph N/A   Mostly Cloudy
11:55 AM 36.9 °F 25.4 °F 15.3 °F 41% 29.60 in 10.0 mi West 24.2 mph 41.4 mph N/A   Mostly Cloudy
12:55 PM 38.7 °F 28.0 °F 14.9 °F 38% 29.59 in 10.0 mi West 23.0 mph 35.7 mph N/A   Mostly Cloudy
1:55 PM 39.4 °F 28.1 °F 16.9 °F 40% 29.59 in 10.0 mi West 27.6 mph 35.7 mph N/A   Mostly Cloudy
2:55 PM 39.6 °F 30.6 °F 16.7 °F 40% 29.59 in 10.0 mi West 17.3 mph 26.5 mph N/A   Mostly Cloudy
3:55 PM 39.9 °F 30.2 °F 14.7 °F 36% 29.59 in 10.0 mi WNW 20.7 mph 28.8 mph N/A   Mostly Cloudy
4:55 PM 40.8 °F 32.6 °F 16.5 °F 37% 29.62 in 10.0 mi WNW 16.1 mph 24.2 mph N/A   Mostly Cloudy
5:55 PM 39.2 °F 30.2 °F 17.1 °F 41% 29.65 in 10.0 mi WNW 17.3 mph 28.8 mph N/A   Mostly Cloudy
6:55 PM 37.8 °F 27.7 °F 18.3 °F 46% 29.68 in 10.0 mi WNW 19.6 mph 34.5 mph N/A   Mostly Cloudy
7:55 PM 37.0 °F 26.7 °F 19.0 °F 48% 29.70 in 10.0 mi WNW 19.6 mph 26.5 mph N/A   Mostly Cloudy
8:55 PM 36.0 °F 27.5 °F 19.8 °F 52% 29.73 in 10.0 mi WNW 12.7 mph 23.0 mph N/A   Scattered Clouds
9:55 PM 34.7 °F 25.9 °F 19.9 °F 55% 29.73 in 10.0 mi WNW 12.7 mph 20.7 mph N/A   Partly Cloudy
10:55 PM 34.2 °F 25.7 °F 19.6 °F 55% 29.72 in 10.0 mi West 11.5 mph 17.3 mph N/A   Partly Cloudy
11:55 PM 33.8 °F 24.3 °F 19.8 °F 56% 29.71 in 10.0 mi West 13.8 mph - N/A   Partly Cloudy